M I D A S
Marine Information and Data Acquisition System
Tripno 1790 of the Zeeleeuw from 2009-09-25 08:00:00 to 2009-09-25 17:00:00
Back to CruiseResearch ActivitiesStationsMapUnderway DataData graphs

EquipmentUnitsComment
TimeDGPSUTC
LatitudeDGPSDM.mWGS84
LongitudeDGPSDM.mWGS84
HeadingGyrodeg 
SOGDGPSknotsSpeed over ground
COGDGPSdegCourse over ground
DepthEcho soundermeters200 kHz
Missing or incorrect values are displayed as -999
Navigation data collected by the RV Zeeleeuw from 2009-09-25 08:00:00 to 2009-09-25 17:00:00
Time Latitude Longitude Heading SOG COG Depth
2009-09-25 08:02:10 51°23.735 2°29.844 320.1 1.1 107 -999
2009-09-25 08:04:10 51°23.758 2°29.852 305.5 1.19 347 -999
2009-09-25 08:06:10 51°23.775 2°29.835 267.5 1.8 285 -999
2009-09-25 08:08:10 51°23.76 2°29.784 208.9 0.59 222 -999
2009-09-25 08:10:10 51°23.751 2°29.796 162.8 0.59 109 -999
2009-09-25 08:12:10 51°23.742 2°29.829 154.8 0.59 108 -999
2009-09-25 08:14:10 51°23.743 2°29.857 156.1 0.5 84 -999
2009-09-25 08:16:10 51°23.748 2°29.879 153.8 0.4 69 -999
2009-09-25 08:18:10 51°23.715 2°29.874 214.1 2 223 -999
2009-09-25 08:20:10 51°23.721 2°29.836 291.8 0.9 321 -999
2009-09-25 08:22:10 51°23.755 2°29.781 295 1.3 313 -999
2009-09-25 08:24:10 51°23.789 2°29.679 285.1 2.1 297 -999
2009-09-25 08:26:10 51°23.824 2°29.582 286.1 2.2 289 -999
2009-09-25 08:28:10 51°23.821 2°29.465 226.1 2.2 228 -999
2009-09-25 08:30:10 51°23.781 2°29.477 133.5 1.19 121 -999
2009-09-25 08:32:10 51°23.779 2°29.522 122.2 0.59 88 -999
2009-09-25 08:34:10 51°23.783 2°29.546 132.9 0.4 61 -999
2009-09-25 08:36:10 51°23.792 2°29.558 138.9 0.4 28 -999
2009-09-25 08:38:10 51°23.805 2°29.568 131.8 0.29 17 -999
2009-09-25 08:40:10 51°23.818 2°29.578 125.2 0.5 22 -999
2009-09-25 08:42:10 51°23.831 2°29.587 124.9 0.5 30 -999
2009-09-25 08:44:10 51°23.843 2°29.595 123.5 0.29 21 -999
2009-09-25 08:46:10 51°23.854 2°29.602 126.4 0.4 31 -999
2009-09-25 08:48:10 51°23.865 2°29.609 127.7 0.4 17 -999
2009-09-25 08:50:10 51°23.876 2°29.613 127.5 0.2 11 -999
2009-09-25 08:52:10 51°23.887 2°29.616 127 0.4 11 -999
2009-09-25 08:54:10 51°23.898 2°29.618 121.7 0.29 12 -999
2009-09-25 08:56:10 51°23.909 2°29.619 120.2 0.4 9 -999
2009-09-25 08:58:10 51°23.919 2°29.62 120.5 0.29 352 -999
2009-09-25 09:00:10 51°23.929 2°29.619 120.4 0.29 5 -999
2009-09-25 09:02:10 51°23.938 2°29.618 122.7 0.4 5 -999
2009-09-25 09:04:10 51°23.947 2°29.615 119.5 0.29 350 -999
2009-09-25 09:06:10 51°23.955 2°29.613 118.7 0.2 320 -999
2009-09-25 09:08:10 51°23.961 2°29.61 122.2 0.1 296 -999
2009-09-25 09:10:10 51°23.964 2°29.606 132.1 0.1 296 -999
2009-09-25 09:12:10 51°23.966 2°29.603 137 0.1 351 -999
2009-09-25 09:14:10 51°23.97 2°29.6 134.6 0.2 353 -999
2009-09-25 09:16:10 51°23.975 2°29.596 129.6 0.2 317 -999
2009-09-25 09:18:10 51°23.979 2°29.591 129.3 0.2 336 -999
2009-09-25 09:20:10 51°23.981 2°29.587 126.2 0.2 35 -999
2009-09-25 09:22:10 51°23.956 2°29.622 137.1 1 150 -999
2009-09-25 09:24:10 51°23.936 2°29.632 148.3 0.4 179 -999
2009-09-25 09:26:10 51°23.926 2°29.631 148.6 0.2 194 -999
2009-09-25 09:28:10 51°23.921 2°29.625 150.5 0.2 233 -999
2009-09-25 09:30:10 51°23.922 2°29.616 142.4 0.2 315 -999
2009-09-25 09:32:10 51°23.925 2°29.603 130 0.29 283 -999
2009-09-25 09:34:10 51°23.929 2°29.585 120.5 0.4 302 -999
2009-09-25 09:36:10 51°23.931 2°29.561 113.4 0.5 280 -999
2009-09-25 09:38:10 51°23.912 2°29.563 141.3 1.69 163 -999
2009-09-25 09:40:10 51°23.849 2°29.535 206.9 1.8 212 -999
2009-09-25 09:42:10 51°23.813 2°29.451 260 2.39 255 -999
2009-09-25 09:44:10 51°23.835 2°29.344 311.8 2.2 296 -999
2009-09-25 09:46:10 51°23.859 2°29.22 301.6 2.5 288 -999
2009-09-25 09:48:10 51°23.893 2°29.103 324.8 2.1 307 -999
2009-09-25 09:50:10 51°23.922 2°29.05 344.3 1.3 317 -999
2009-09-25 09:52:10 51°23.952 2°29.084 71.7 1.69 76 -999
2009-09-25 09:54:10 51°23.903 2°29.228 119.2 5.29 127 -999
2009-09-25 09:56:10 51°23.8 2°29.537 110 6.79 114 -999
2009-09-25 09:58:10 51°23.732 2°29.78 104.9 3.29 115 -999
2009-09-25 10:00:10 51°23.716 2°29.871 71.7 1.1 94 -999
2009-09-25 10:02:10 51°23.726 2°29.886 33.2 0.29 7 -999
2009-09-25 10:04:10 51°23.731 2°29.873 31.1 0.4 267 -999
2009-09-25 10:06:10 51°23.727 2°29.86 53.5 0.2 191 -999
2009-09-25 10:08:10 51°23.732 2°29.873 47.2 0.29 31 -999
2009-09-25 10:10:10 51°23.735 2°29.862 30 0.29 241 -999
2009-09-25 10:12:10 51°23.724 2°29.847 40.6 0.59 207 -999
2009-09-25 10:14:10 51°23.716 2°29.831 27.6 0.4 283 -999
2009-09-25 10:16:10 51°23.73 2°29.81 14 0.59 328 -999
2009-09-25 10:18:10 51°23.727 2°29.78 20.3 0.5 258 -999
2009-09-25 10:20:10 51°23.72 2°29.754 28.3 0.29 252 -999
2009-09-25 10:22:10 51°23.837 2°29.91 43.7 9.09 50 -999
2009-09-25 10:24:10 51°24.037 2°30.333 47.2 10.09 47 -999
2009-09-25 10:26:10 51°24.285 2°30.7 46.7 10.19 44 -999
2009-09-25 10:28:10 51°24.504 2°31.107 50.5 10.19 48 -999
2009-09-25 10:30:10 51°24.72 2°31.501 50.2 8.19 49 -999
2009-09-25 10:32:10 51°24.79 2°31.63 29.3 1.5 11 -999
2009-09-25 10:34:10 51°24.797 2°31.6 9.5 0.8 252 -999
2009-09-25 10:36:10 51°24.783 2°31.562 9.9 0.9 233 -999
2009-09-25 10:38:10 51°24.759 2°31.524 16.3 1.1 225 -999
2009-09-25 10:40:10 51°24.729 2°31.485 26.8 1.19 218 -999
2009-09-25 10:42:10 51°24.696 2°31.441 42.8 1.39 218 -999
2009-09-25 10:44:10 51°24.66 2°31.392 61.1 1.39 219 -999
2009-09-25 10:46:10 51°24.624 2°31.341 72.2 1.39 223 -999
2009-09-25 10:48:10 51°24.588 2°31.289 81.4 1.5 222 -999
2009-09-25 10:50:10 51°24.552 2°31.233 88.5 1.5 227 -999
2009-09-25 10:52:10 51°24.517 2°31.175 96.2 1.5 225 -999
2009-09-25 10:54:10 51°24.482 2°31.117 97.2 1.6 225 -999
2009-09-25 10:56:10 51°24.446 2°31.056 99.2 1.6 228 -999
2009-09-25 10:58:10 51°24.41 2°30.993 100.5 1.6 230 -999
2009-09-25 11:00:10 51°24.356 2°30.959 133.4 3 169 -999
2009-09-25 11:02:10 51°24.193 2°30.733 228.8 9.5 229 -999
2009-09-25 11:04:10 51°23.922 2°30.242 228.6 12.69 227 -999
2009-09-25 11:06:10 51°23.711 2°29.844 237.4 5.5 238 -999
2009-09-25 11:08:10 51°23.676 2°29.728 300 1.8 246 -999
2009-09-25 11:10:10 51°23.648 2°29.647 311.8 1.69 239 -999
2009-09-25 11:12:10 51°23.619 2°29.573 312.3 1.8 240 -999
2009-09-25 11:14:10 51°23.688 2°29.641 56 4.9 60 -999
2009-09-25 11:16:10 51°23.715 2°29.758 61.3 1 88 -999
2009-09-25 11:18:10 51°23.716 2°29.775 46.7 0.1 272 -999
2009-09-25 11:20:10 51°23.716 2°29.737 4 1 258 -999
2009-09-25 11:22:10 51°23.7 2°29.682 357 1.19 240 -999
2009-09-25 11:24:10 51°23.673 2°29.626 350.1 1.39 229 -999
2009-09-25 11:26:10 51°23.638 2°29.57 347.1 1.6 224 -999
2009-09-25 11:28:10 51°23.599 2°29.516 351.6 1.6 222 -999
2009-09-25 11:30:10 51°23.559 2°29.463 3.2 1.5 215 -999
2009-09-25 11:32:10 51°23.518 2°29.41 15.5 1.6 219 -999
2009-09-25 11:34:10 51°23.474 2°29.355 32.6 1.69 215 -999
2009-09-25 11:36:10 51°23.436 2°29.31 51.6 0.59 207 -999
2009-09-25 11:38:10 51°23.515 2°29.466 50.3 4.9 51 -999
2009-09-25 11:40:10 51°23.65 2°29.633 38.6 5.2 34 -999
2009-09-25 11:42:10 51°23.772 2°29.822 50.3 5 50 -999
2009-09-25 11:44:10 51°23.824 2°29.943 56.2 1.19 61 -999
2009-09-25 11:46:10 51°23.823 2°29.959 47.7 0.29 220 -999
2009-09-25 11:48:10 51°23.807 2°29.933 34.2 0.9 230 -999
2009-09-25 11:50:10 51°23.783 2°29.89 24.1 1.1 220 -999
2009-09-25 11:52:10 51°23.753 2°29.844 23.1 1.39 226 -999
2009-09-25 11:54:10 51°23.718 2°29.796 22 1.39 221 -999
2009-09-25 11:56:10 51°23.68 2°29.746 26.6 1.5 223 -999
2009-09-25 11:58:10 51°23.652 2°29.704 33.7 0.69 240 -999
2009-09-25 13:00:10 51°23.365 2°29.313 273.8 3.79 269 -999
2009-09-25 13:02:10 51°23.484 2°29.363 41.7 7.5 38 -999
2009-09-25 13:04:10 51°23.638 2°29.649 50.7 4.4 48 -999
2009-09-25 13:06:10 51°23.687 2°29.679 18.8 1.19 358 -999
2009-09-25 13:08:10 51°23.726 2°29.707 41 1.3 34 -999
2009-09-25 13:10:10 51°23.753 2°29.739 35.2 0.69 32 -999
2009-09-25 13:12:10 51°23.764 2°29.743 33.7 0.2 332 -999
2009-09-25 13:14:10 51°23.76 2°29.735 32.5 0.29 204 -999
2009-09-25 13:16:10 51°23.749 2°29.723 31.1 0.5 199 -999
2009-09-25 13:18:10 51°23.731 2°29.705 29.8 0.69 216 -999
2009-09-25 13:20:10 51°23.66 2°29.856 140.5 8.3 149 -999
2009-09-25 13:22:10 51°23.367 2°30.201 139.9 11.69 144 -999
2009-09-25 13:24:10 51°23.058 2°30.563 140.8 11.5 141 -999
2009-09-25 13:26:10 51°22.77 2°30.958 131.9 11.19 132 -999
2009-09-25 13:28:10 51°22.512 2°31.387 129.5 11.19 136 -999
2009-09-25 13:30:10 51°22.248 2°31.808 129.3 11.19 134 -999
2009-09-25 13:32:10 51°22.012 2°32.263 119.5 11.09 120 -999
2009-09-25 13:34:10 51°21.834 2°32.778 114.5 11.19 118 -999
2009-09-25 13:36:10 51°21.652 2°33.308 114.4 11.5 117 -999
2009-09-25 13:38:10 51°21.469 2°33.848 120 11.5 122 -999
2009-09-25 13:40:10 51°21.241 2°34.336 124.7 11.19 130 -999
2009-09-25 13:42:10 51°21.01 2°34.799 126.2 11.09 130 -999
2009-09-25 13:44:10 51°20.777 2°35.259 125.7 11.19 128 -999
2009-09-25 13:46:10 51°20.533 2°35.715 129 11.3 133 -999
2009-09-25 13:48:10 51°20.277 2°36.161 128.8 11.4 134 -999
2009-09-25 13:50:10 51°20.025 2°36.615 125.2 11.4 127 -999
2009-09-25 13:52:10 51°19.801 2°37.108 123 11.4 129 -999
2009-09-25 13:54:10 51°19.588 2°37.609 121 11.3 121 -999
2009-09-25 13:56:10 51°19.377 2°38.104 122.2 11.3 129 -999
2009-09-25 13:58:10 51°19.162 2°38.596 121.5 11.19 126 -999
2009-09-25 14:00:10 51°18.951 2°39.099 122.5 11.3 124 -999
2009-09-25 14:02:10 51°18.745 2°39.608 122.9 11.4 123 -999
2009-09-25 14:04:10 51°18.532 2°40.12 123.4 11.59 125 -999
2009-09-25 14:06:10 51°18.323 2°40.641 123.4 11.69 122 -999
2009-09-25 14:08:10 51°18.103 2°41.152 121 11.69 123 -999
2009-09-25 14:10:10 51°17.887 2°41.662 123 11.69 122 -999
2009-09-25 14:12:10 51°17.678 2°42.175 122 11.4 123 -999
2009-09-25 14:14:10 51°17.475 2°42.691 122.5 11.5 123 -999
2009-09-25 14:16:10 51°17.267 2°43.215 122.7 11.69 123 -999
2009-09-25 14:18:10 51°17.05 2°43.724 122.2 11.59 127 -999
2009-09-25 14:20:10 51°16.834 2°44.228 122 11.4 123 -999
2009-09-25 14:22:10 51°16.62 2°44.736 121.2 11.59 125 -999
2009-09-25 14:24:10 51°16.399 2°45.247 122.2 11.59 123 -999
2009-09-25 14:26:10 51°16.263 2°45.814 101.9 11.59 102 -999
2009-09-25 14:28:10 51°16.193 2°46.424 100.2 11.8 101 -999
2009-09-25 14:30:10 51°16.122 2°47.035 102.2 11.69 105 -999
2009-09-25 14:32:10 51°16.032 2°47.644 103 11.8 103 -999
2009-09-25 14:34:10 51°15.94 2°48.255 104.4 11.8 103 -999
2009-09-25 14:36:10 51°15.843 2°48.864 103.5 11.9 105 -999
2009-09-25 14:38:10 51°15.748 2°49.472 102.5 11.9 104 -999
2009-09-25 14:40:10 51°15.662 2°50.084 103.5 11.69 103 -999
2009-09-25 14:42:10 51°15.573 2°50.69 103.5 11.69 104 -999
2009-09-25 14:44:10 51°15.493 2°51.287 102.7 11.59 105 -999
2009-09-25 14:46:10 51°15.375 2°51.874 111.9 11.59 108 -999
2009-09-25 14:48:10 51°15.25 2°52.458 112 11.69 108 -999
2009-09-25 14:50:10 51°15.158 2°53.059 104.2 11.69 101 -999
2009-09-25 14:52:10 51°15.036 2°53.645 118 11.4 116 -999
2009-09-25 14:54:10 51°14.816 2°54.137 126.9 11.59 122 -999
2009-09-25 14:56:10 51°14.596 2°54.637 126.7 11.59 125 -999
2009-09-25 14:58:10 51°14.347 2°55.101 136.5 11.5 132 -999
2009-09-25 15:00:10 51°14.103 2°55.439 148.9 9.09 149 -999
2009-09-25 15:02:10 51°13.852 2°55.609 157.5 8 157 -999
2009-09-25 15:04:10 51°13.71 2°55.809 123.4 4.9 122 -999
2009-09-25 15:06:10 51°13.668 2°55.946 111.5 1.3 111 -999